Temperature
7 6 6 6 6 5 5 5 5 5 5 4 4 4 4 4 3 3 3 3 2 2 2 2 1 1 1 0 -0 -1 -2 -3 -4 -2 -2 -2 -2 -2 -2 -2 -2 -2 -2
6 5 5 5 5 5 5 5 4 4 4 3 3 3 3 3 2 2 2 2 1 1 1 1 1 0 0 -0 -1 -1 -2 -3 -3 -3 -3 -3 -3 -3 -2 -3 -3 -3 -3
5 5 5 4 4 4 4 4 3 3 3 3 2 2 2 1 1 1 1 1 1 0 0 0 0 -0 -1 -1 -1 -2 -2 -3 -4 -4 -4 -4 -4 -4 -4 -4 -4 -4 -4
4 4 4 4 3 3 3 3 2 2 2 2 1 1 1 0 0 0 -0 -0 -0 -0 -1 -1 -1 -1 -1 -1 -2 -2 -2 -3 -4 -5 -5 -5 -5 -5 -5 -5 -5 -5 -5
3 3 3 3 2 2 2 2 1 1 1 1 0 0 -0 -0 -1 -1 -1 -1 -1 -1 -1 -1 -1 -2 -2 -2 -2 -2 -3 -3 -4 -5 -5 -5 -6 -6 -6 -5 -6 -5 -5
3 2 2 2 2 1 1 1 1 0 0 -0 -0 -1 -1 -1 -1 -2 -2 -2 -2 -2 -2 -2 -2 -2 -2 -2 -3 -3 -3 -3 -4 -5 -5 -5 -5 -6 -6 -6 -6 -7 -7
2 2 1 1 1 0 -0 -0 -0 -0 -1 -1 -1 -1 -2 -2 -2 -2 -2 -3 -3 -3 -3 -3 -3 -3 -3 -3 -3 -3 -3 -3 -4 -4 -4 -5 -5 -5 -5 -6 -6 -7 -6
1 1 0 -0 -0 -1 -1 -1 -1 -1 -2 -2 -2 -2 -2 -2 -2 -3 -3 -3 -3 -3 -3 -3 -3 -3 -3 -3 -4 -4 -4 -4 -4 -4 -4 -4 -4 -5 -5 -5 -5 -6 -6
0 -0 -0 -1 -1 -1 -2 -2 -2 -2 -2 -3 -3 -3 -3 -3 -3 -3 -3 -3 -3 -3 -3 -3 -4 -4 -3 -4 -4 -4 -4 -4 -4 -4 -4 -4 -5 -5 -5 -6 -6 -7 -7
-1 -1 -1 -2 -2 -2 -2 -2 -3 -3 -3 -3 -3 -3 -3 -3 -3 -3 -4 -4 -4 -4 -4 -4 -4 -4 -4 -4 -4 -4 -5 -4 -4 -4 -5 -5 -5 -5 -5 -6 -6 -7 -7
-1 -2 -2 -2 -3 -3 -3 -3 -3 -4 -4 -4 -4 -4 -4 -4 -4 -4 -4 -4 -4 -4 -4 -4 -4 -4 -4 -4 -4 -4 -5 -5 -5 -5 -5 -5 -5 -5 -6 -6 -6 -6 -7
-2 -2 -2 -3 -3 -3 -4 -4 -4 -4 -4 -4 -4 -4 -4 -4 -4 -5 -5 -4 -4 -4 -4 -4 -4 -4 -4 -4 -5 -5 -5 -5 -5 -5 -5 -6 -6 -6 -6 -6 -6 -6 -6
-2 -3 -3 -3 -3 -4 -4 -4 -4 -5 -5 -5 -5 -5 -5 -5 -5 -5 -5 -5 -5 -5 -5 -5 -5 -5 -5 -5 -5 -5 -5 -5 -5 -5 -6 -6 -6 -6 -6 -6 -6 -7 -7
-3 -3 -4 -4 -4 -4 -5 -5 -5 -5 -5 -6 -6 -6 -5 -5 -5 -5 -5 -5 -5 -5 -5 -5 -5 -5 -5 -5 -5 -5 -5 -5 -5 -6 -6 -6 -6 -6 -6 -6 -7 -7 -7
-4 -4 -4 -5 -5 -5 -5 -5 -5 -6 -6 -6 -6 -6 -6 -6 -5 -5 -5 -5 -5 -5 -5 -5 -5 -6 -6 -6 -6 -6 -6 -6 -6 -6 -6 -6 -6 -7 -7 -7 -7 -7 -8
-5 -5 -5 -5 -5 -6 -6 -6 -5 -6 -6 -6 -6 -6 -6 -6 -5 -5 -5 -5 -6 -6 -6 -6 -6 -6 -6 -6 -6 -6 -6 -6 -6 -6 -6 -7 -7 -7 -7 -7 -7 -8 -8
-5 -5 -6 -6 -6 -6 -6 -6 -6 -6 -6 -6 -6 -6 -6 -6 -6 -6 -6 -6 -6 -6 -6 -6 -6 -6 -6 -7 -7 -7 -7 -7 -7 -7 -7 -7 -7 -7 -7 -8 -8 -8 -9
-5 -6 -6 -6 -6 -6 -6 -6 -7 -7 -6 -6 -6 -6 -6 -6 -6 -6 -6 -6 -6 -6 -6 -6 -6 -7 -7 -7 -7 -7 -7 -7 -7 -7 -7 -7 -8 -8 -8 -8 -8 -9 -9
-6 -6 -6 -6 -6 -6 -6 -7 -7 -7 -7 -7 -7 -6 -6 -6 -6 -6 -7 -7 -7 -7 -7 -7 -7 -7 -7 -7 -7 -7 -7 -7 -7 -8 -8 -8 -8 -8 -8 -8 -9 -9 -9
-6 -6 -6 -7 -7 -7 -7 -7 -7 -7 -7 -7 -7 -7 -7 -7 -7 -7 -7 -7 -8 -7 -7 -7 -7 -7 -7 -8 -8 -8 -8 -8 -8 -8 -8 -8 -8 -8 -8 -9 -9 -9 -10
-6 -6 -7 -7 -7 -7 -7 -7 -7 -7 -7 -7 -7 -7 -7 -7 -7 -7 -8 -8 -8 -8 -8 -8 -8 -8 -8 -8 -8 -8 -8 -8 -8 -8 -8 -8 -8 -9 -9 -9 -9 -10 -10
-7 -7 -7 -7 -7 -7 -7 -7 -7 -7 -7 -7 -7 -7 -7 -8 -8 -8 -8 -8 -8 -8 -8 -8 -8 -8 -8 -8 -8 -8 -8 -8 -8 -8 -8 -8 -9 -9 -9 -9 -10 -10 -10
-7 -7 -7 -7 -7 -8 -8 -8 -8 -8 -8 -8 -8 -8 -8 -8 -8 -8 -8 -8 -8 -8 -8 -8 -8 -8 -8 -8 -8 -8 -8 -8 -8 -8 -9 -9 -9 -9 -9 -10 -10 -10 -10
-7 -7 -7 -8 -8 -8 -8 -8 -8 -8 -8 -8 -8 -8 -8 -8 -8 -8 -8 -8 -8 -8 -8 -8 -8 -8 -8 -8 -8 -8 -8 -8 -8 -9 -9 -9 -9 -9 -10 -10 -10 -10 -10
-8 -8 -8 -8 -8 -8 -9 -8 -8 -8 -8 -8 -8 -8 -8 -8 -8 -9 -9 -9 -9 -8 -8 -8 -8 -8 -8 -8 -8 -8 -8 -9 -9 -9 -9 -9 -9 -10 -10 -10 -10 -10 -10
-8 -8 -8 -9 -9 -9 -9 -9 -8 -8 -8 -8 -8 -8 -8 -9 -9 -9 -9 -9 -9 -9 -9 -9 -9 -9 -9 -9 -9 -9 -9 -9 -9 -9 -9 -9 -10 -10 -10 -10 -10 -10 -10
Wind_Speed
9 8 9 9 9 9 9 11 11 11 11 11 12 12 12 12 12 12 14 14 16 17 16 17 20 17 16 15 14 15 16 16 22 16 7 9 12 12 12 14 19 19 20
9 9 9 10 10 10 11 12 11 12 12 12 12 12 13 13 12 13 14 14 15 17 17 17 19 16 18 16 15 17 17 17 19 23 10 9 13 12 12 11 11 15 15
9 10 10 11 11 12 12 13 12 12 13 12 12 13 13 13 13 13 14 15 15 16 16 16 18 16 18 16 17 17 16 16 17 19 17 9 9 8 9 10 10 9 12
10 10 11 12 12 13 13 13 13 13 13 14 13 13 14 13 13 13 14 15 15 16 15 16 16 16 18 18 17 18 16 16 16 17 16 10 9 7 9 10 10 10 12
11 12 13 13 13 13 13 14 13 13 14 14 14 14 13 12 12 13 13 14 15 16 15 15 16 20 23 20 16 15 15 16 15 16 16 12 11 8 10 9 13 10 11
12 13 14 14 14 14 14 14 14 14 14 14 14 15 15 13 21 26 21 14 13 14 14 14 15 19 23 28 30 28 23 18 17 17 16 16 14 13 11 12 12 11 10
13 14 14 14 15 15 15 15 15 15 14 14 14 14 16 17 26 28 28 19 14 12 13 12 12 13 19 14 20 26 26 30 28 19 18 17 14 13 14 14 13 11 12
14 14 14 14 15 16 15 15 15 14 14 15 15 15 15 18 26 28 27 19 13 12 12 12 13 13 13 14 13 14 15 16 19 18 16 15 14 12 14 15 14 13 9
15 15 15 15 16 17 17 17 16 15 16 15 15 15 16 18 25 27 26 13 11 12 11 11 12 13 19 22 15 14 14 13 19 24 23 21 24 24 18 12 12 11 10
16 16 16 15 16 18 18 18 16 15 16 16 16 14 15 16 23 26 25 11 11 11 10 10 17 17 20 21 14 12 14 12 11 11 14 17 16 19 25 17 14 12 7
16 16 16 15 15 16 17 15 15 15 16 16 17 15 14 17 21 24 24 12 10 11 10 9 9 19 21 21 18 11 15 12 9 10 9 8 8 9 10 12 12 12 10
16 16 16 16 15 15 16 16 15 15 16 16 15 15 11 12 17 19 23 22 19 12 10 8 10 18 19 19 14 14 18 14 7 8 8 8 8 9 8 9 10 11 10
17 17 17 17 15 14 15 16 15 13 13 14 13 14 13 10 12 21 22 22 21 13 9 15 17 19 17 13 15 17 13 8 6 7 8 9 8 7 7 6 7 8 9
18 17 16 16 16 14 12 12 13 13 13 14 14 13 13 12 10 9 10 11 14 12 10 13 17 16 12 11 11 10 6 6 7 7 7 7 6 6 7 7 7 7 7
17 16 16 14 15 15 13 12 13 12 14 16 13 13 14 14 15 21 16 10 9 10 10 7 6 5 6 5 5 5 5 5 7 6 6 6 7 8 7 7 7 7 8
16 15 14 14 13 13 14 14 17 18 23 24 23 21 16 20 25 24 23 22 22 19 12 7 7 6 7 6 6 5 5 6 6 6 6 7 8 8 8 7 6 8 9
16 16 14 13 13 13 13 14 15 16 19 21 22 23 22 23 23 23 22 22 20 18 9 7 6 6 6 5 5 5 5 5 5 6 6 6 7 7 7 7 8 8 9
15 18 17 13 13 13 13 13 13 14 15 12 15 21 22 22 22 21 21 17 11 9 6 6 6 6 5 5 5 5 5 5 5 5 6 6 7 7 7 8 8 9 9
15 13 13 13 13 13 12 12 12 13 13 13 12 14 19 19 19 19 16 8 8 8 7 7 6 6 5 5 5 5 5 5 6 6 6 7 7 7 8 8 9 13 11
13 21 20 14 13 13 12 12 12 12 13 12 12 12 11 12 10 10 8 7 7 8 8 7 6 5 5 5 5 5 5 5 6 6 6 7 7 7 8 9 9 9 9
13 15 21 16 12 12 12 12 12 12 12 12 12 13 19 11 10 10 9 8 8 8 7 6 6 5 5 4 4 5 5 5 5 6 6 6 7 7 7 8 9 9 8
12 13 12 13 12 12 12 11 11 12 12 13 12 13 18 11 9 9 8 8 7 7 6 6 5 5 5 5 5 5 5 6 5 6 6 6 6 7 7 7 8 8 8
12 13 13 12 12 15 14 11 11 11 12 12 12 11 10 9 8 8 8 8 7 7 6 5 5 5 5 5 5 5 6 6 6 6 6 6 6 7 7 8 9 9 9
12 13 13 13 12 11 11 12 11 12 12 11 11 10 9 9 9 9 8 8 7 7 6 6 6 7 8 6 5 5 6 6 5 6 7 7 7 7 7 7 8 10 10
11 12 12 12 12 12 12 12 12 12 11 11 10 10 9 9 9 8 7 7 7 7 8 7 6 6 8 8 8 7 9 11 10 7 6 6 7 8 8 9 9 9 10
11 12 12 11 11 11 11 12 12 12 11 11 10 9 9 9 8 8 7 7 7 7 7 6 7 8 8 8 9 11 12 12 12 12 7 6 7 8 8 9 10 10 11
Wind_Direction
322 315 310 304 300 296 290 286 284 284 281 277 274 272 269 265 259 254 252 250 248 249 244 241 241 237 237 234 231 231 231 231 248 255 210 202 204 217 227 224 223 229 235
311 309 306 302 302 299 294 291 288 286 283 279 277 275 272 268 262 257 259 256 252 251 248 244 245 241 237 236 232 232 232 229 237 253 241 209 212 213 218 221 221 224 225
310 308 307 305 302 299 296 294 292 288 286 283 279 277 274 271 266 262 260 260 256 255 252 247 247 242 242 238 234 234 233 232 233 244 249 221 218 213 215 223 224 224 225
309 307 305 302 299 296 295 293 291 288 288 286 282 278 275 273 269 267 265 263 262 259 255 251 249 243 243 240 238 236 233 233 232 238 245 232 221 200 206 218 227 223 230
308 306 303 300 297 295 293 292 291 288 287 285 284 282 277 275 273 269 264 262 262 262 258 253 250 249 248 246 243 238 231 232 233 236 241 237 225 205 212 209 225 224 227
305 303 302 301 299 296 295 294 293 291 290 287 285 283 282 281 284 287 286 273 263 260 261 257 254 258 259 259 255 248 235 229 229 231 235 234 229 218 212 212 218 222 231
301 300 300 299 298 297 297 296 294 294 292 290 286 283 283 283 289 291 290 287 275 265 261 261 262 258 261 253 257 258 253 243 232 227 232 232 225 215 210 214 214 214 223
300 299 298 298 298 300 299 296 295 294 293 292 290 287 286 287 293 294 294 291 280 270 262 259 261 261 256 254 248 248 248 249 245 237 230 228 224 216 210 214 216 221 226
301 300 300 300 302 303 302 301 299 298 296 294 292 290 289 291 294 296 295 286 279 272 265 259 259 257 261 263 257 249 249 247 250 247 239 231 227 225 215 211 213 216 226
303 302 302 301 301 301 301 300 299 297 296 297 295 292 289 290 293 296 296 288 282 279 272 263 266 266 266 265 255 246 248 246 237 243 246 243 233 229 225 213 208 212 212
301 302 302 300 298 298 298 298 298 299 299 298 295 293 289 290 295 298 298 294 282 280 278 273 264 271 271 269 262 248 248 245 231 228 231 231 226 223 224 218 207 209 209
303 303 303 302 301 302 299 300 299 300 301 300 299 299 294 292 296 297 298 297 295 286 281 276 271 277 274 271 267 258 255 251 230 219 222 224 223 222 218 214 209 210 213
305 304 305 304 302 299 299 301 304 303 301 301 301 301 302 296 295 300 302 302 300 296 283 282 283 284 282 274 270 267 260 245 224 219 220 222 218 213 205 206 209 213 217
304 306 306 306 305 303 300 300 301 302 302 301 302 302 302 301 296 293 290 293 295 292 289 286 287 287 283 274 270 270 255 236 227 222 217 216 204 201 206 205 208 206 217
304 305 306 304 303 305 303 298 299 293 294 301 301 301 303 302 301 304 304 298 295 286 291 282 276 277 271 262 256 254 245 238 240 223 214 211 207 206 209 203 203 202 211
307 308 307 305 304 305 305 304 299 299 303 304 304 303 301 300 305 309 311 310 308 303 299 286 276 268 267 262 255 248 238 234 233 226 216 212 210 207 208 203 203 207 217
302 304 305 303 304 305 305 306 308 309 307 307 308 309 307 308 311 312 312 311 310 309 297 285 277 270 267 261 251 246 242 236 228 223 219 216 211 208 208 208 208 213 221
302 303 304 301 302 302 301 302 303 306 310 310 309 310 311 311 312 313 314 315 308 306 292 286 281 274 266 261 253 249 243 235 230 227 222 217 212 210 211 211 211 214 221
305 305 302 300 300 300 299 299 299 300 302 304 307 308 311 313 313 312 315 306 301 297 292 285 277 270 266 261 256 250 243 238 234 228 224 220 214 213 216 216 216 224 225
305 305 309 305 304 302 301 301 301 301 302 304 305 308 312 312 309 310 308 296 294 292 288 283 277 271 265 261 259 254 247 241 235 233 230 223 217 215 219 219 219 222 224
305 306 308 307 303 302 301 300 301 302 303 303 303 305 312 313 308 306 305 301 297 295 290 283 277 271 266 263 259 254 249 247 240 234 230 224 218 219 221 221 221 223 225
304 303 304 304 304 304 303 301 301 301 302 303 304 307 313 312 304 303 303 301 297 292 286 281 277 269 262 256 254 253 252 250 246 237 232 227 222 222 221 221 222 222 224
303 305 307 306 304 305 307 302 302 302 302 303 305 307 309 306 303 302 300 299 298 295 292 284 278 275 269 261 253 247 248 248 244 235 232 231 228 225 222 223 223 225 228
306 308 308 307 307 306 305 304 304 303 303 303 304 304 304 303 302 301 300 299 298 296 292 286 279 274 272 271 266 257 252 251 241 233 229 232 234 233 230 230 231 232 234
309 308 308 307 307 306 305 305 304 303 303 304 304 305 305 303 301 301 300 299 299 297 295 292 286 281 276 272 270 265 264 263 260 250 233 232 235 234 234 236 237 239 238
311 309 308 307 306 305 304 304 304 304 303 304 304 304 302 300 300 300 301 300 301 300 298 295 289 285 283 280 274 272 273 272 268 263 252 242 238 240 238 240 240 240 243
Height
1486 1482 1478 1474 1469 1465 1460 1455 1450 1445 1441 1436 1432 1428 1424 1420 1417 1413 1409 1406 1403 1399 1398 1395 1393 1392 1391 1390 1390 1390 1390 1389 1384 1377 1383 1386 1389 1392 1395 1397 1398 1400 1402
1481 1476 1472 1467 1462 1457 1452 1447 1442 1436 1432 1427 1422 1417 1413 1409 1406 1402 1398 1395 1391 1388 1385 1384 1381 1381 1379 1378 1378 1377 1376 1376 1375 1369 1370 1374 1376 1380 1383 1386 1387 1389 1391
1475 1470 1465 1460 1454 1449 1443 1438 1433 1427 1422 1417 1412 1407 1403 1399 1395 1391 1387 1383 1380 1376 1374 1371 1369 1369 1366 1366 1365 1364 1363 1364 1363 1361 1358 1363 1365 1368 1371 1373 1375 1377 1379
1468 1463 1458 1452 1446 1440 1435 1429 1424 1418 1412 1407 1402 1397 1392 1388 1384 1380 1376 1372 1368 1364 1362 1360 1358 1356 1354 1354 1353 1351 1352 1352 1352 1350 1349 1351 1354 1356 1359 1361 1363 1365 1368
1462 1456 1450 1445 1439 1432 1426 1420 1415 1409 1403 1398 1392 1387 1382 1378 1373 1369 1364 1360 1356 1352 1350 1348 1346 1345 1343 1342 1340 1339 1339 1339 1340 1339 1338 1340 1342 1345 1345 1348 1351 1354 1356
1455 1449 1443 1436 1430 1424 1418 1412 1405 1399 1394 1388 1382 1377 1372 1367 1363 1359 1355 1350 1345 1342 1339 1336 1335 1333 1332 1330 1330 1329 1328 1327 1327 1328 1327 1328 1329 1333 1336 1339 1341 1344 1345
1448 1442 1435 1429 1422 1415 1409 1403 1396 1390 1384 1378 1372 1367 1361 1357 1353 1349 1345 1341 1336 1332 1329 1326 1324 1322 1321 1319 1318 1317 1317 1317 1316 1316 1315 1315 1319 1323 1327 1329 1331 1332 1334
1440 1434 1427 1421 1413 1407 1400 1394 1387 1381 1374 1368 1362 1357 1351 1346 1343 1338 1334 1330 1325 1322 1319 1317 1314 1311 1310 1309 1306 1305 1305 1305 1307 1307 1305 1307 1311 1314 1317 1320 1322 1324 1327
1433 1426 1420 1413 1406 1399 1391 1385 1378 1372 1365 1359 1353 1347 1342 1336 1333 1328 1324 1319 1315 1312 1309 1307 1305 1302 1300 1299 1297 1295 1294 1294 1296 1297 1298 1300 1302 1305 1308 1311 1313 1316 1317
1425 1419 1412 1406 1399 1391 1384 1377 1370 1364 1357 1350 1344 1339 1333 1327 1323 1320 1316 1311 1307 1303 1300 1298 1296 1293 1291 1290 1289 1287 1286 1285 1287 1288 1290 1291 1294 1296 1299 1301 1303 1306 1307
1418 1411 1404 1398 1391 1383 1376 1369 1362 1355 1349 1342 1336 1330 1325 1320 1315 1311 1308 1304 1300 1295 1292 1289 1287 1285 1283 1282 1281 1279 1278 1279 1279 1280 1281 1283 1285 1287 1290 1293 1294 1296 1299
1410 1402 1395 1389 1383 1376 1368 1361 1355 1348 1341 1334 1327 1321 1317 1312 1308 1303 1300 1297 1293 1289 1285 1282 1279 1277 1276 1274 1273 1272 1272 1272 1272 1272 1273 1275 1277 1279 1282 1285 1287 1289 1291
1402 1394 1387 1380 1374 1368 1361 1354 1347 1341 1334 1327 1321 1315 1309 1304 1300 1297 1293 1289 1285 1282 1278 1275 1272 1270 1268 1267 1266 1266 1266 1265 1265 1265 1266 1268 1270 1272 1275 1277 1280 1282 1284
1394 1386 1379 1372 1365 1359 1354 1348 1341 1334 1328 1321 1315 1309 1303 1298 1294 1290 1286 1282 1278 1275 1271 1268 1265 1263 1261 1260 1259 1259 1258 1258 1258 1259 1260 1261 1264 1266 1268 1270 1272 1274 1276
1386 1379 1372 1365 1358 1351 1346 1341 1334 1328 1324 1317 1310 1305 1299 1292 1288 1285 1281 1276 1272 1268 1265 1261 1258 1256 1254 1253 1252 1252 1252 1252 1252 1253 1254 1255 1257 1258 1260 1262 1264 1266 1267
1379 1372 1365 1358 1352 1345 1338 1331 1326 1322 1316 1311 1305 1300 1294 1289 1283 1279 1275 1270 1266 1263 1259 1254 1252 1250 1248 1247 1246 1245 1245 1245 1246 1247 1247 1248 1250 1251 1253 1255 1257 1258 1259
1373 1366 1358 1352 1345 1339 1332 1325 1317 1311 1308 1303 1298 1293 1288 1283 1278 1273 1268 1264 1260 1256 1252 1249 1246 1244 1243 1241 1240 1240 1239 1239 1240 1240 1241 1242 1243 1244 1246 1247 1249 1250 1251
1366 1359 1352 1346 1339 1333 1327 1320 1313 1306 1299 1293 1290 1286 1281 1276 1272 1267 1262 1258 1253 1250 1247 1244 1241 1239 1237 1236 1235 1234 1234 1234 1234 1234 1235 1235 1237 1237 1238 1239 1240 1241 1242
1359 1352 1345 1339 1333 1327 1321 1314 1308 1302 1296 1289 1283 1279 1275 1270 1265 1261 1257 1252 1248 1244 1241 1238 1236 1234 1232 1231 1229 1229 1228 1228 1228 1228 1228 1229 1230 1231 1231 1232 1233 1233 1234
1352 1346 1340 1333 1326 1320 1314 1309 1303 1297 1291 1285 1279 1274 1269 1264 1259 1255 1251 1247 1243 1239 1236 1233 1231 1229 1227 1226 1225 1224 1223 1222 1222 1222 1222 1223 1223 1223 1223 1224 1225 1225 1226
1345 1338 1333 1327 1320 1314 1309 1303 1297 1292 1286 1280 1275 1270 1266 1261 1255 1250 1246 1242 1238 1234 1231 1229 1226 1224 1223 1221 1220 1219 1218 1217 1217 1217 1216 1216 1216 1216 1216 1217 1217 1218 1218
1339 1332 1326 1320 1314 1308 1303 1298 1292 1287 1281 1276 1270 1265 1261 1256 1251 1246 1241 1237 1234 1230 1227 1224 1222 1220 1218 1217 1216 1214 1213 1212 1212 1211 1210 1210 1209 1209 1209 1209 1210 1210 1210
1333 1327 1321 1314 1308 1303 1297 1292 1287 1281 1276 1271 1266 1260 1256 1251 1246 1242 1237 1233 1229 1226 1223 1220 1218 1216 1214 1213 1211 1210 1208 1207 1206 1205 1204 1203 1203 1203 1202 1202 1202 1202 1202
1327 1321 1315 1308 1302 1297 1291 1286 1281 1276 1271 1266 1261 1256 1251 1247 1242 1237 1233 1229 1225 1222 1219 1216 1214 1211 1210 1208 1206 1205 1203 1202 1201 1200 1198 1197 1197 1196 1196 1195 1195 1195 1194
1321 1315 1309 1303 1297 1292 1286 1281 1276 1271 1266 1261 1257 1252 1247 1242 1238 1233 1229 1225 1221 1218 1215 1212 1209 1207 1205 1203 1201 1200 1198 1197 1195 1194 1193 1191 1190 1189 1189 1188 1187 1186 1186
1315 1309 1303 1297 1292 1286 1281 1276 1271 1266 1261 1257 1252 1247 1242 1238 1233 1229 1225 1221 1218 1214 1211 1208 1205 1203 1200 1198 1196 1194 1192 1191 1189 1188 1187 1186 1184 1183 1182 1180 1179 1178 1177